User: anonymous   Login
Location: Radford
(37.1320°N, 80.5770°W)
Time: 04:56:35
(UTC-05:00)
Language:

Okean 1-7 - Orbit

View from above orbital plane
View from above orbital plane
View from above satellite
View from above satellite

Ground track
Ground track

The orbit data is extracted from the following two-line orbital elements,

1 23317U 94066A   16038.88998832  .00000795  00000-0  85844-4 0  9998
2 23317  82.5357 223.9621 0018585 268.3654  91.5434 14.87037852152328
Epoch (UTC): 07 February 2016 21:21:34
Eccentricity: 0.0018585
inclination: 82.5357°
perigee height: 594 km
apogee height: 620 km
right ascension of ascending node: 223.9621°
argument of perigee: 268.3654°
revolutions per day: 14.87037852
mean anomaly at epoch: 91.5434°
orbit number at epoch: 15232

The dashed part of the orbit path shows where the satellite is in the earth's shadow,  

DLR